{"data":{"norad_id":43867,"intl_designator":"2018-107A","name":"COSMOS 2533","alt_names":[],"object_type":"PAYLOAD","status":"ACTIVE","operator":null,"country":"CIS","launch_date":"2018-12-21","launch_site_code":"TYMSC","launch_vehicle":null,"mission":null,"orbit_class":"UNKNOWN","rcs_meters":null,"size_class":null,"mass_kg":null,"dimensions":null,"purposes":["comms"],"wikipedia_slug":null,"has_3d_model":false,"image_url":null,"decayed_at":null,"tle_current":{"epoch":"2026-05-24T17:48:35.901216Z","epoch_age_seconds":94010,"freshness":"FRESH","line1":"1 43867U 18107A   26144.74208219 -.00000043  00000+0  00000+0 0  9991","line2":"2 43867   0.0453 109.6388 0000251  46.5591  63.2876  1.00277164 27217","mean_motion":1.00277164,"eccentricity":2.51e-5,"inclination_deg":0.0453,"raan_deg":109.6388,"arg_perigee_deg":46.5591,"mean_anomaly_deg":63.2876,"bstar":0,"rev_number":2721,"period_min":1436.0198698878,"perigee_km":35784.028802709,"apogee_km":35786.145396559,"semimajor_km":42163.224099634,"source":"CELESTRAK","updated_at":"2026-05-25T13:38:14.060122Z"}}}